Wind_Speed
8 8 9 9 9 9 10 10 10 11 12 13 13 14 14 15 15 14 14 15 16 16 16 17 17 17 18 18 19 20 20 21 21 22 22 23 24 24
8 8 9 10 10 10 11 11 12 13 13 14 14 14 15 15 15 15 15 15 16 16 17 18 18 18 19 19 19 20 22 22 23 24 25 25 26 26
10 10 10 11 11 11 11 11 12 13 14 14 15 15 16 16 16 16 16 17 17 17 17 18 19 20 20 21 21 21 22 24 25 26 27 28 28 28
11 11 11 11 11 11 12 13 13 14 15 16 17 17 17 17 18 18 18 17 18 18 19 20 21 22 22 22 22 24 25 25 27 28 29 29 30 31
11 11 12 12 12 12 13 14 14 15 16 17 18 18 18 18 18 19 18 19 20 20 21 22 22 23 24 24 25 26 26 27 28 29 30 30 31 32
11 12 12 12 12 13 13 14 15 16 17 18 17 18 18 19 19 20 21 21 22 22 23 23 24 24 24 25 27 28 28 29 30 31 31 32 33 33
13 13 13 13 13 14 15 15 16 17 17 18 19 19 20 20 20 21 22 23 24 24 25 25 26 26 27 27 28 29 30 31 31 32 33 34 35 35
14 14 14 14 15 15 15 16 17 18 18 19 19 19 20 21 22 23 24 24 24 25 26 27 27 28 29 30 30 31 31 32 33 34 35 36 37 37
16 16 16 16 16 16 17 17 18 18 19 19 19 20 21 22 23 24 24 25 26 27 28 29 30 30 30 30 31 32 33 35 36 37 37 38 38 39
18 18 19 19 18 19 19 19 19 20 21 21 21 21 22 23 24 25 26 27 28 28 29 29 30 31 31 31 32 33 35 36 37 38 39 39 40 40
18 19 20 20 20 21 21 21 21 22 22 22 23 24 24 26 27 27 28 28 29 29 29 30 31 32 33 34 35 36 37 37 38 39 40 40 41 42
20 20 20 21 21 22 22 22 22 23 24 24 25 26 27 28 29 29 29 29 30 30 30 32 33 33 34 35 36 36 38 39 39 40 41 42 42 43
21 21 22 22 23 23 24 24 24 25 25 26 27 28 29 29 30 30 30 31 31 32 32 33 34 35 36 37 38 39 40 40 41 42 43 43 43 44
22 23 23 24 24 24 25 26 26 26 27 28 29 29 30 30 31 31 32 32 33 33 34 35 36 37 38 38 39 40 41 42 43 43 43 43 44 44
23 23 23 24 25 26 26 26 27 28 28 29 29 30 31 31 32 33 34 34 34 34 35 36 37 38 39 40 41 41 42 43 43 43 44 44 45 45
24 25 25 25 25 26 26 27 28 28 29 29 30 30 31 32 33 34 34 35 35 36 37 38 39 39 39 40 41 41 42 43 43 43 44 44 44 43
26 26 26 26 26 26 27 28 28 29 29 30 31 32 32 33 34 34 35 36 37 38 38 39 39 40 40 40 41 41 42 42 42 42 42 42 42 43
26 27 27 27 27 27 28 29 29 30 31 32 33 33 34 34 35 36 36 37 38 38 39 39 39 40 40 40 41 41 41 41 42 42 42 42 42 41
27 27 27 28 28 28 29 30 31 32 33 33 33 34 35 35 35 36 37 38 38 39 39 39 39 40 40 40 40 40 41 41 41 41 41 41 40 40
27 28 29 29 29 30 31 32 32 33 33 34 34 34 35 35 36 37 37 38 39 39 39 39 39 39 39 40 40 39 40 40 40 40 40 40 40 39
28 29 30 31 30 31 32 32 32 33 34 34 35 35 35 36 37 38 38 38 39 39 39 39 38 38 39 39 39 39 39 39 39 39 39 38 37 37
28 29 30 31 30 31 31 32 33 34 34 34 35 35 36 36 37 37 38 38 39 39 39 38 38 38 38 38 39 39 39 38 38 38 37 36 36 36
29 29 29 30 31 31 32 33 33 33 33 34 35 35 35 36 36 37 37 38 38 38 37 37 38 38 38 38 38 38 37 37 37 36 36 35 34 34
Wind_Direction
286 284 282 283 285 283 286 287 289 293 293 295 295 293 291 291 293 292 287 285 283 284 285 283 280 281 280 279 275 275 275 274 275 275 276 277 275 275
287 288 287 288 289 286 285 288 293 292 291 294 296 295 293 291 291 293 293 289 288 287 286 283 281 283 283 282 280 277 276 275 277 277 277 278 278 277
292 291 291 294 290 288 288 292 294 295 295 295 295 295 291 290 290 290 292 292 291 289 289 288 284 284 284 280 282 283 280 278 278 279 278 278 279 279
293 294 296 297 291 289 289 290 293 296 296 293 292 295 294 291 290 288 289 290 291 292 292 291 288 286 285 281 282 283 283 282 282 281 281 279 279 279
296 296 298 298 295 290 290 291 294 298 297 295 292 293 294 291 289 291 290 288 290 291 292 291 290 288 286 282 282 283 283 284 283 284 284 283 281 281
295 297 295 295 292 289 290 292 296 300 300 297 296 295 297 296 294 293 292 292 291 291 291 291 290 289 288 286 285 284 285 285 284 285 285 285 284 283
294 295 294 291 291 289 290 293 296 299 300 301 298 295 295 296 294 294 294 293 294 293 292 292 291 290 288 287 286 286 286 286 286 285 285 286 285 285
291 291 291 290 290 292 292 293 298 300 301 302 300 298 297 296 295 295 296 295 295 294 294 293 293 291 290 289 288 288 288 287 287 286 286 286 286 286
291 291 289 287 287 289 290 293 296 298 300 302 302 300 299 299 298 298 298 298 297 296 295 294 292 291 291 290 289 289 289 288 288 288 288 287 287 286
289 289 288 287 285 287 290 292 294 297 299 301 302 302 300 299 300 300 299 299 298 298 297 295 295 293 292 292 291 292 292 292 291 291 290 288 287 287
289 289 288 286 286 287 289 290 292 294 296 300 301 302 301 301 301 301 300 299 299 298 297 296 296 294 293 293 293 293 293 294 293 293 292 290 289 289
291 291 290 288 288 288 288 289 291 293 294 297 299 300 301 301 301 301 300 299 298 298 297 297 296 296 295 295 295 294 295 295 295 294 294 293 292 291
290 290 289 289 289 289 290 291 292 293 294 295 297 298 299 300 301 302 301 299 298 298 298 297 297 297 296 296 295 295 296 295 295 294 295 294 293 292
290 290 289 289 289 289 290 291 292 294 294 295 296 298 299 300 301 302 301 299 299 298 299 299 298 299 299 298 297 296 295 295 294 294 295 294 294 293
289 290 290 290 289 289 290 291 292 294 295 296 297 298 299 300 300 301 301 301 301 300 300 300 300 299 299 299 299 298 297 297 296 295 295 295 294 293
288 289 290 291 290 290 291 291 292 294 296 297 297 298 299 300 301 301 301 301 302 301 301 301 301 301 300 300 301 301 300 299 298 297 297 296 295 294
288 289 289 290 291 294 294 293 293 294 296 298 299 300 300 301 301 301 301 302 303 303 304 304 304 304 303 302 302 302 302 301 301 300 298 297 296 295
290 290 290 291 293 294 295 296 295 295 296 298 300 301 302 302 302 301 301 302 304 305 305 305 305 304 304 303 304 304 303 303 302 301 300 299 298 296
289 290 291 292 293 295 295 295 296 296 297 299 300 300 301 302 303 303 303 304 305 306 307 307 306 306 305 305 305 305 305 305 304 303 303 301 299 298
290 290 291 291 293 295 296 297 297 297 298 299 299 300 301 302 303 304 305 305 306 307 307 307 307 307 307 307 307 306 306 307 307 307 304 302 301 300
292 292 291 292 293 295 295 296 297 298 299 299 299 300 301 302 303 304 305 306 307 307 308 308 309 309 310 309 310 310 309 309 309 308 306 304 303 303
294 294 294 293 294 296 297 297 298 299 299 300 300 301 301 302 303 304 305 306 308 308 309 309 310 310 311 311 311 311 312 311 311 310 308 307 306 305
294 295 295 295 296 297 297 297 298 299 299 301 301 301 303 304 304 305 306 307 308 309 310 311 311 311 312 312 312 312 312 312 311 311 310 310 309 308
Height
5893 5893 5892 5892 5891 5890 5889 5888 5888 5887 5886 5884 5883 5882 5881 5880 5879 5877 5876 5875 5874 5873 5872 5871 5870 5869 5868 5867 5866 5866 5865 5864 5864 5863 5862 5862 5861 5860
5891 5891 5890 5889 5888 5887 5887 5886 5885 5884 5882 5881 5879 5878 5877 5876 5875 5874 5872 5871 5870 5869 5867 5866 5866 5865 5864 5863 5861 5860 5859 5859 5858 5857 5856 5855 5854 5852
5889 5888 5887 5886 5885 5884 5884 5883 5881 5880 5879 5878 5876 5875 5874 5872 5871 5870 5868 5867 5866 5865 5863 5862 5861 5859 5858 5857 5856 5855 5853 5852 5851 5849 5848 5847 5846 5845
5886 5885 5884 5883 5882 5882 5881 5880 5878 5876 5875 5874 5872 5871 5870 5868 5867 5865 5864 5862 5861 5860 5858 5857 5855 5854 5853 5851 5850 5849 5847 5846 5844 5843 5841 5840 5838 5837
5884 5883 5882 5880 5879 5879 5878 5876 5875 5873 5871 5870 5868 5867 5865 5863 5862 5861 5859 5858 5856 5855 5853 5851 5850 5848 5847 5845 5844 5842 5840 5839 5837 5835 5833 5832 5830 5828
5881 5880 5879 5878 5876 5875 5874 5873 5871 5869 5867 5865 5864 5862 5861 5859 5857 5856 5854 5852 5851 5849 5847 5845 5844 5842 5840 5839 5837 5835 5833 5831 5829 5827 5825 5824 5822 5820
5878 5877 5875 5874 5873 5872 5871 5869 5867 5865 5863 5861 5860 5858 5856 5854 5852 5850 5849 5847 5845 5843 5841 5839 5837 5835 5833 5831 5829 5827 5825 5823 5821 5819 5817 5815 5812 5810
5874 5873 5872 5871 5869 5868 5867 5865 5864 5862 5860 5858 5855 5854 5852 5850 5848 5845 5843 5841 5839 5837 5834 5832 5830 5828 5826 5823 5821 5819 5817 5814 5812 5810 5807 5805 5802 5800
5871 5869 5868 5867 5866 5864 5863 5861 5859 5857 5856 5854 5851 5849 5847 5845 5842 5840 5837 5835 5833 5830 5827 5825 5822 5820 5817 5815 5813 5810 5808 5805 5802 5800 5797 5794 5791 5789
5867 5865 5864 5862 5861 5860 5858 5857 5855 5853 5851 5849 5847 5844 5842 5839 5837 5835 5832 5829 5826 5823 5820 5818 5814 5812 5809 5806 5804 5801 5798 5795 5792 5789 5786 5783 5780 5777
5862 5861 5859 5858 5856 5855 5853 5852 5850 5848 5846 5843 5841 5838 5836 5833 5831 5828 5825 5822 5819 5816 5813 5810 5807 5803 5800 5797 5794 5791 5788 5785 5782 5778 5775 5772 5768 5765
5857 5856 5854 5853 5851 5849 5848 5846 5844 5842 5840 5838 5835 5832 5830 5827 5824 5821 5818 5815 5812 5809 5805 5802 5799 5795 5792 5788 5785 5781 5778 5774 5771 5767 5763 5760 5756 5753
5852 5851 5849 5847 5846 5844 5842 5840 5838 5836 5834 5831 5829 5826 5823 5820 5817 5814 5810 5807 5804 5800 5797 5793 5790 5786 5782 5779 5775 5771 5767 5763 5759 5755 5751 5748 5744 5740
5847 5845 5843 5841 5840 5838 5836 5834 5832 5829 5827 5824 5821 5818 5815 5812 5809 5806 5802 5798 5795 5791 5788 5784 5780 5776 5772 5768 5764 5760 5756 5752 5747 5743 5739 5735 5731 5727
5840 5839 5837 5835 5833 5831 5829 5827 5825 5822 5819 5817 5814 5811 5807 5804 5801 5797 5794 5790 5786 5782 5778 5774 5771 5766 5762 5758 5753 5749 5744 5740 5735 5731 5727 5722 5718 5714
5834 5832 5830 5828 5826 5824 5822 5820 5817 5815 5812 5809 5806 5803 5799 5796 5792 5788 5785 5781 5777 5773 5769 5764 5760 5756 5751 5746 5742 5737 5733 5728 5723 5718 5713 5709 5704 5700
5827 5825 5823 5821 5819 5817 5814 5812 5809 5807 5804 5801 5798 5795 5791 5787 5783 5780 5776 5771 5767 5763 5759 5754 5749 5744 5740 5735 5731 5726 5721 5715 5710 5705 5701 5696 5692 5687
5820 5818 5816 5814 5811 5809 5807 5804 5802 5799 5796 5793 5789 5786 5782 5778 5774 5770 5766 5762 5758 5753 5748 5744 5739 5734 5729 5724 5719 5714 5709 5704 5698 5693 5688 5683 5679 5674
5812 5810 5808 5806 5804 5801 5799 5796 5793 5791 5787 5784 5780 5777 5773 5769 5765 5761 5757 5752 5747 5743 5738 5733 5728 5723 5718 5714 5708 5703 5697 5692 5686 5681 5676 5671 5666 5661
5804 5802 5800 5798 5796 5793 5790 5788 5785 5782 5778 5775 5771 5768 5764 5760 5756 5752 5747 5743 5738 5733 5728 5723 5717 5712 5707 5702 5697 5692 5686 5680 5675 5669 5664 5659 5654 5649
5796 5794 5792 5789 5787 5785 5781 5778 5775 5772 5769 5766 5762 5759 5755 5751 5747 5742 5738 5733 5728 5723 5718 5713 5707 5702 5696 5691 5686 5681 5675 5670 5664 5658 5653 5647 5643 5638
5788 5786 5784 5781 5778 5776 5773 5769 5766 5763 5760 5756 5753 5749 5745 5741 5737 5732 5728 5723 5718 5713 5708 5702 5697 5692 5687 5681 5675 5670 5665 5659 5654 5648 5643 5638 5633 5628
5780 5778 5775 5773 5770 5767 5764 5761 5757 5754 5750 5747 5743 5739 5735 5731 5727 5723 5718 5713 5708 5703 5698 5693 5687 5682 5677 5671 5666 5660 5655 5649 5644 5639 5634 5628 5624 5619